Weather History for West Palm Beach, FL

Change the Weather History Date:

Monday, September 2, 2013

  Actual Average Record
Temperature  
Mean Temperature 83 °F 82 °F  
Max Temperature 90 °F 89 °F 94 °F (1911)
Min Temperature 75 °F 76 °F 69 °F (1975)
Degree Days  
Heating Degree Days 0 0  
Month to date heating degree days 0 0  
Since 1 July heating degree days 0 0  
Cooling Degree Days 18 17  
Month to date cooling degree days 36 34  
Year to date cooling degree days 2920 2740  
Growing Degree Days 34 (Base 50)    
Moisture  
Dew Point 72 °F    
Average Humidity 73    
Maximum Humidity 90    
Minimum Humidity 56    
Precipitation  
Precipitation 0.53 in 0.29 in 4.34 in (1977)
Month to date precipitation 0.53 0.58  
Year to date precipitation 48.15 41.30  
Snow  
Snow 0.00 in - - ()
Month to date snowfall 0.0  
Since 1 July snowfall 0.0  
Since 1 September snowfall 0.0  
Snow Depth 0.00 in    
Sea Level Pressure  
Sea Level Pressure 29.99 in    
Wind  
Wind Speed 4 mph (SW)    
Max Wind Speed 25 mph    
Max Gust Speed 36 mph    
Visibility 9 miles    
Events Rain , Thunderstorm    
T = Trace of Precipitation, MM = Missing Value Source: NWS Daily Summary

Daily Weather History Graph

Daily Weather History Graph

Search for Another Location

Airport:

Trip Planner

Search our weather history database for the weather conditions in past years. The results will help you decide how hot, cold, wet, or windy it might be!

Date:

Astronomy

Sep. 02, 2013 Rise Set
Actual Time 7:00 AM EDT 7:38 PM EDT
Civil Twilight 6:37 AM EDT 8:02 PM EDT
Nautical Twilight 6:09 AM EDT 8:30 PM EDT
Astronomical Twilight 5:41 AM EDT 8:58 PM EDT
Moon 4:25 AM EDT (9/2) 5:44 PM EDT (9/2)
Length of Visible Light 13h 25m
Length of Day
12h 38m
Waning Crescent, 8% of the Moon is Illuminated
Sep 2
Waning Crescent
Sep 5
New
Sep 12
First Quarter
Sep 19
Full
Sep 26
Last Quarter

Hourly Weather History & Observations

Time (EDT) Temp. Heat Index Dew Point Humidity Pressure Visibility Wind Dir Wind Speed Gust Speed Precip Events Conditions
12:53 AM 80.1 °F 84.2 °F 73.0 °F 79% 30.00 in 10.0 mi Calm Calm - N/A   Scattered Clouds
1:53 AM 80.1 °F 84.2 °F 73.0 °F 79% 29.98 in 10.0 mi Calm Calm - N/A   Scattered Clouds
2:53 AM 78.1 °F - 72.0 °F 81% 29.96 in 10.0 mi NW 3.5 mph - N/A   Partly Cloudy
3:53 AM 79.0 °F - 73.9 °F 84% 29.96 in 10.0 mi Calm Calm - N/A   Partly Cloudy
4:53 AM 79.0 °F - 73.9 °F 84% 29.95 in 10.0 mi Calm Calm - N/A   Scattered Clouds
5:53 AM 77.0 °F - 72.0 °F 84% 29.96 in 10.0 mi Calm Calm - N/A   Scattered Clouds
6:53 AM 78.1 °F - 73.0 °F 84% 29.98 in 10.0 mi Calm Calm - N/A   Scattered Clouds
7:53 AM 80.1 °F 85.1 °F 75.0 °F 85% 30.00 in 10.0 mi Calm Calm - N/A   Mostly Cloudy
8:53 AM 84.0 °F 91.2 °F 73.9 °F 72% 30.01 in 10.0 mi SW 3.5 mph - N/A   Mostly Cloudy
9:53 AM 84.9 °F 90.7 °F 72.0 °F 65% 30.02 in 10.0 mi Calm Calm - N/A   Mostly Cloudy
10:53 AM 89.1 °F 97.0 °F 73.0 °F 59% 30.03 in 10.0 mi West 3.5 mph - N/A   Scattered Clouds
11:53 AM 89.1 °F 95.0 °F 71.1 °F 55% 30.03 in 10.0 mi Variable 3.5 mph - N/A   Mostly Cloudy
12:53 PM 91.9 °F 101.3 °F 73.9 °F 55% 30.01 in 10.0 mi SE 9.2 mph - N/A   Mostly Cloudy
1:53 PM 90.0 °F 97.9 °F 73.0 °F 57% 29.99 in 10.0 mi East 11.5 mph - N/A   Mostly Cloudy
2:53 PM 86.0 °F 93.8 °F 73.9 °F 67% 29.99 in 7.0 mi SE 9.2 mph - 0.02 in Rain Light Rain
3:05 PM 84.2 °F 92.3 °F 75.2 °F 74% 30.00 in 5.0 mi South 9.2 mph - 0.06 in Rain , Thunderstorm Thunderstorms and Rain
3:46 PM 75.2 °F - 69.8 °F 83% 30.02 in 2.0 mi SW 12.7 mph 27.6 mph 0.25 in Rain , Thunderstorm Heavy Thunderstorms and Rain
3:53 PM 75.0 °F - 69.1 °F 82% 30.02 in 2.0 mi SW 16.1 mph 19.6 mph 0.31 in Rain , Thunderstorm Heavy Thunderstorms and Rain
4:07 PM 75.2 °F - 69.8 °F 83% 30.02 in 4.0 mi South 12.7 mph - 0.12 in Rain , Thunderstorm Thunderstorms and Rain
4:53 PM 75.9 °F - 71.1 °F 85% 29.98 in 10.0 mi NW 6.9 mph - 0.19 in Rain , Thunderstorm Light Thunderstorms and Rain
5:21 PM 75.2 °F - 71.6 °F 89% 30.00 in 10.0 mi South 3.5 mph - 0.01 in Rain Light Rain
5:53 PM 76.1 °F - 72.1 °F 87% 29.99 in 10.0 mi West 4.6 mph - 0.01 in Rain Light Rain
6:53 PM 77.2 °F - 71.8 °F 83% 29.96 in 10.0 mi NW 8.1 mph - 0.00 in   Overcast
7:53 PM 77.0 °F - 71.1 °F 82% 29.95 in 10.0 mi Calm Calm - N/A   Overcast
8:53 PM 75.7 °F - 72.1 °F 89% 29.97 in 10.0 mi South 3.5 mph - N/A   Overcast
9:53 PM 75.7 °F - 72.3 °F 89% 30.00 in 10.0 mi Calm Calm - N/A   Scattered Clouds
10:53 PM 75.7 °F - 72.3 °F 89% 29.99 in 10.0 mi Calm Calm - N/A   Scattered Clouds
11:53 PM 75.9 °F - 71.1 °F 85% 29.99 in 10.0 mi Calm Calm - N/A   Mostly Cloudy